Location: Unspecified
(40.9833°N, 0.0000°E)
Time: 19:48:56
(UTC+00:00)

STARS - Visible Passes

Search period start: 22 August 2019 00:00
Search period end: 01 September 2019 00:00
Orbit: 625 x 639 km, 98.3° (Epoch: 22 August)

Date Brightness Start Highest point End Pass type
(mag) Time Alt. Az. Time Alt. Az. Time Alt. Az.
22 Aug ? 20:42:55 10° N 20:46:58 36° WNW 20:51:01 10° SW visible
23 Aug ? 19:27:44 10° NNE 19:31:47 34° E 19:35:48 10° SSE visible
23 Aug ? 21:04:26 10° NNW 21:07:53 22° WNW 21:11:19 10° WSW visible
24 Aug ? 19:48:32 10° NNE 19:52:55 58° E 19:57:17 10° S visible
24 Aug ? 21:26:23 10° NNW 21:28:44 14° WNW 21:31:05 10° W visible
25 Aug ? 20:09:32 10° NNE 20:14:00 83° WNW 20:18:25 10° SSW visible
26 Aug ? 20:30:44 10° N 20:35:01 49° WNW 20:39:17 10° SW visible
27 Aug ? 19:16:01 10° NE 19:19:42 25° E 19:23:20 10° SSE visible
27 Aug ? 20:52:07 10° N 20:55:58 30° WNW 20:59:49 10° SW visible
28 Aug ? 19:36:39 10° NNE 19:40:53 41° E 19:45:04 10° S visible
28 Aug ? 21:13:46 10° NNW 21:16:52 19° WNW 21:19:57 10° WSW visible
29 Aug ? 19:57:32 10° NNE 20:01:59 72° ESE 20:06:24 10° S visible
29 Aug ? 21:36:04 10° NW 21:37:41 12° WNW 21:39:18 10° W visible
30 Aug ? 20:18:37 10° N 20:23:03 68° WNW 20:27:26 10° SSW visible
31 Aug ? 19:04:28 10° NE 19:07:35 18° E 19:10:40 10° SE visible
31 Aug ? 20:39:53 10° N 20:44:02 40° WNW 20:48:09 10° SW visible
